Showing default

CAPELLA-15 (ACADIA), 60544

Orbit data source: Space-Track

CAPELLA-15 (ACADIA), 60544 is a payload satellite owned by Capella Space (US) in SSO that was launched on Fri, 16 Aug 2024 UTC via an FALCON 9 launch vehicle from the Air Force Western Test Range (AFWTR). Payload-class satellites include a variety of spacecraft equipped with specific instruments for various scientific and technological missions. These include communications satellites like Starlink; space stations such as the ISS; scientific satellites like the Hubble; Earth observation satellites from companies like Planet Labs, Umbra, and HawkEye 360; GPS; miniature CubeSats for education and research; and military/defense satellites.

Loading next visibility...
Identifier
60544, 2024-149CE
Orbit
SSO
Country
Flag of USUS
Related business
Manufacturer
Capella Space
Mission
Operational Commercial Radar Imaging
Bus & Motor
ACADIA, Unknown motor
Mass
180 kg wet, ~150 kg dry
Launch date (UTC)
2024-08-16 (2 years ago)
Launch vehicle
FALCON 9
Launch site
Air Force Western Test Range (AFWTR)
Object type
Payload
Rocket body
Debris
Shape & HBR
Box + 2 Pan + 1 Dish + 1 Rod, 1.8 m
Radar Cross Section
0.463 m², Large (>1 m²)

Expand to show TLE details & history
Last TLE update: 2 days ago

TLE from 2 days ago
0 CAPELLA-15 (ACADIA)
1 60544U 24149CE  26263.46315534  .00000391  00000-0  43530-4 0  9991
2 60544  97.6701 333.9438 0005158 107.4965 252.6818 14.92374999114066
Epoch: 2026-09-20T11:06Z
TLE epoch observation values (Epoch: 2026-09-20T11:06:56.621Z)
Latitude
-0.00006°
Longitude
167.85091°
Altitude
594.65 km
Speed
7.562 km/s
True Right ascension
22h 15m 46s
True Declination
0° 00' 00"
Sunlit
Object was in full shadow at epoch
Visualization orbit readout
Latitude
Unknown
Longitude
Unknown
Altitude
Unknown
Speed
Unknown
Apparent Right ascension
Unknown
Apparent Declination
Unknown
Sunlit
N/A
Visualization observer readout
Local Sidereal Time
03:42:53
Azimuth
Unknown
Elevation
Unknown
Doppler factor
Unknown
Orbital elements
Apogee altitude
591.139 km
Perigee altitude
583.954 km
Semi-major axis
6,965.684 km
Eccentricity
0.00052
Inclination
97.6701°
RAAN
333.9438°
Arg. of periapsis
107.4965°
True anomaly
252.62538°
Mean anomaly
252.6818°
Eccentric anomaly
252.65359°
Mean motion
3.73334 °/min
Orbital period
96.43 mins
BSTAR
0.00004353
Loading maneuver chart data...
Computing Atmospheric mass density...
Loading historical data...
Loading historical data...
Loading historical data...
Loading historical data...
Loading historical data...
Loading historical data...
Loading historical data...

Documentation

Showing up to 5 results
|